Location: Dalton
(34.7700°N, 84.9700°W)
Time: 13:07:31
(UTC-04:00)

Tiangong 2 - Pass Details

Date: 08 October 2017
Orbit: 388 x 392 km, 42.8° (Epoch: 17 October)

Event Time Altitude Azimuth Distance (km) Brightness Sun altitude
Exits shadow 05:50:44 33° 120° (ESE) 682 2.7 -23.2°
Drops below altitude 10° 05:53:09 10° 77° (ENE) 1,420 5.1 -22.7°
Sets 05:55:19 0° 69° (ENE) 2,278 6.4 -22.3°
